Wind_Speed
35 38 35 32 27 25 22 21 21 17 16 18 20 23 24 23 17 16 16 15 15 13 10 11 11 9 9 8 7 6 6 7 4 3 5 7 15 15 12 10 9 8 7
37 39 39 34 32 28 27 24 23 20 20 19 19 17 18 24 19 18 19 18 18 17 15 15 14 11 10 9 9 9 9 8 6 6 8 11 13 15 12 12 12 10 9
34 35 35 36 34 32 30 29 24 25 21 20 20 18 17 18 19 22 21 19 19 19 17 17 15 14 14 13 12 13 13 12 11 10 7 12 16 14 17 16 14 13 12
32 34 34 34 34 34 32 29 29 28 26 24 23 24 22 20 19 22 22 21 19 19 19 17 17 18 18 16 16 15 13 15 14 14 12 12 11 13 21 21 18 17 15
19 27 29 26 29 31 32 33 33 33 30 26 26 28 27 25 24 22 21 20 19 18 18 19 19 18 17 16 15 13 13 15 16 16 14 11 10 10 23 23 23 19 18
10 8 11 14 20 25 27 30 32 32 34 32 31 28 28 27 25 22 23 22 19 19 21 20 18 16 16 15 16 15 14 15 17 17 17 16 18 18 19 25 23 16 7
11 8 8 5 3 7 13 23 28 30 31 30 29 30 30 28 24 21 20 20 19 19 19 21 19 15 13 13 14 16 16 17 17 17 17 18 17 14 15 21 25 24 18
18 13 6 9 9 9 12 17 25 28 28 30 29 31 31 30 26 21 20 20 20 18 16 14 15 15 15 16 17 16 15 13 13 13 14 15 15 15 14 12 17 20 19
19 21 22 14 10 10 10 13 15 27 27 29 29 29 28 25 24 23 21 20 20 20 18 17 18 18 19 19 19 18 16 14 12 12 11 10 10 10 9 9 12 14 4
9 13 16 15 13 10 13 10 13 12 16 21 23 22 24 24 25 24 21 19 19 18 16 15 18 19 19 16 18 21 20 16 12 7 5 2 2 5 5 6 8 12 5
4 7 8 9 9 8 8 9 4 2 6 12 15 14 13 14 12 9 10 14 14 13 13 14 14 14 15 14 15 19 21 16 14 11 7 4 3 4 5 6 5 5 10
4 7 6 8 9 8 6 7 7 5 7 8 3 12 8 3 4 6 6 6 8 9 11 10 8 7 8 10 13 17 18 16 17 13 10 8 7 6 7 7 7 6 5
9 13 14 13 12 9 8 8 10 7 4 6 7 6 4 4 4 3 3 5 6 7 6 4 3 2 1 2 4 2 7 12 12 9 9 7 7 7 6 7 10 11 10
11 13 14 13 12 9 7 5 4 6 7 7 5 7 6 7 6 6 7 7 3 6 9 8 6 6 7 9 8 7 7 7 7 7 9 9 8 8 9 10 13 13 13
13 11 11 11 9 8 9 8 5 5 6 7 5 6 6 7 4 5 4 7 8 7 7 6 6 7 6 5 5 5 5 5 6 8 10 10 11 11 9 7 7 7 4
11 9 8 9 10 10 12 13 12 9 7 7 7 3 3 5 4 4 4 5 8 9 7 7 6 5 5 6 6 6 5 5 5 7 8 9 7 4 4 4 5 5 5
10 10 10 10 10 10 11 11 12 9 7 6 6 7 7 5 5 5 7 8 5 4 5 6 6 5 4 3 4 3 4 5 6 6 7 5 4 3 3 4 4 5 8
8 8 8 10 9 9 7 6 7 8 9 7 7 8 9 8 7 7 6 3 4 4 6 6 6 7 6 4 4 4 5 5 5 4 4 3 3 3 2 3 5 7 11
9 8 7 8 9 9 7 7 5 5 6 8 9 8 9 9 9 9 7 3 4 4 5 5 6 6 5 5 5 4 5 5 4 3 3 2 2 2 3 2 2 7 10
4 5 6 7 9 9 8 8 8 7 7 8 8 8 9 9 8 8 6 5 5 4 3 2 2 3 3 4 4 5 5 5 5 5 4 3 3 2 3 4 5 5 6
3 5 6 7 8 8 8 8 7 6 6 7 6 5 4 5 6 7 6 6 5 3 1 1 2 3 5 5 5 5 6 5 5 5 5 4 3 4 3 6 5 4 5
4 6 7 7 8 10 10 10 11 11 11 9 6 6 5 6 5 4 5 5 5 4 4 5 9 7 5 4 4 5 5 5 5 5 6 5 6 5 4 6 6 7 8
5 7 11 11 12 12 12 13 11 11 13 13 11 10 11 10 10 8 6 6 6 6 6 6 9 10 9 7 7 6 5 5 5 6 6 6 7 7 7 8 9 9 9
10 7 6 12 13 18 22 19 17 16 16 16 15 15 14 14 12 12 9 7 8 9 7 6 6 6 7 9 8 7 7 7 7 8 8 8 7 9 9 8 9 9 9
16 13 11 11 10 9 16 18 23 22 19 19 19 21 19 17 15 14 14 13 11 11 11 10 10 8 7 5 8 8 6 6 6 7 9 10 8 8 9 8 8 7 7
18 16 14 12 11 9 12 19 21 21 19 18 17 18 20 20 20 18 18 19 19 18 18 17 16 16 15 14 12 11 12 11 11 10 12 12 12 9 9 9 8 9 9
Wind_Direction
216 220 218 216 214 215 221 229 227 229 232 238 236 242 244 229 235 239 239 244 248 248 251 250 250 261 275 269 260 268 264 243 220 237 221 220 199 213 211 209 207 198 190
215 213 218 220 219 219 221 223 224 228 231 242 247 238 230 222 231 240 245 243 245 248 254 256 258 261 259 265 270 261 258 252 256 259 227 201 209 218 223 218 210 204 204
212 215 219 226 225 225 225 223 223 220 224 230 227 234 227 232 239 239 239 240 245 247 253 257 261 264 266 264 273 263 262 253 248 248 252 221 221 221 213 209 214 214 215
214 217 220 228 230 228 228 229 229 226 227 227 228 233 236 238 245 244 245 248 248 249 253 258 267 264 267 271 272 271 282 248 243 243 241 229 226 228 218 210 211 216 217
200 212 215 227 231 227 230 235 238 236 235 238 240 234 235 240 244 247 244 245 249 255 257 260 264 267 267 267 271 279 272 248 239 246 243 239 224 206 210 219 222 222 219
167 162 185 206 221 230 231 238 242 245 240 241 239 239 240 240 243 247 247 246 250 254 258 261 258 261 259 256 264 266 268 263 256 251 254 244 242 234 233 226 217 204 227
214 196 180 216 243 237 239 239 242 244 247 241 241 242 243 244 244 243 245 249 253 257 264 264 254 253 256 253 256 259 256 256 259 265 267 269 272 252 237 229 228 223 222
204 198 208 238 261 281 279 265 244 241 249 246 243 243 243 249 246 246 246 245 245 251 260 267 252 251 252 249 250 251 250 252 258 262 267 271 271 266 259 245 236 238 236
209 210 220 239 272 264 283 265 271 239 240 252 245 248 247 245 249 250 248 242 239 248 254 250 249 245 250 253 251 245 240 247 258 257 259 269 277 286 284 263 240 220 192
239 222 225 229 233 250 266 290 270 255 241 238 243 241 242 243 241 242 240 238 237 240 247 246 247 248 253 250 253 246 236 235 226 213 206 212 316 339 303 262 250 209 148
303 242 231 236 249 229 227 213 209 204 255 249 236 223 223 222 231 229 220 231 235 237 244 252 254 256 257 248 248 253 242 232 206 201 188 172 122 80 72 76 85 160 151
118 134 139 146 147 134 134 148 118 134 135 128 90 146 146 156 201 213 224 230 234 234 235 240 250 258 255 252 247 248 246 222 195 177 154 129 116 94 73 64 72 78 116
125 123 122 117 105 98 86 79 91 98 111 133 163 94 59 105 53 46 221 225 226 229 219 202 148 107 76 225 244 229 198 179 164 157 142 141 126 111 98 91 81 79 88
129 122 117 110 108 104 104 105 103 93 116 109 121 119 177 87 83 63 76 90 103 153 129 128 126 110 105 111 115 127 145 158 166 168 158 144 125 120 128 107 100 98 95
141 131 122 120 124 119 109 103 100 90 101 109 123 136 96 94 93 99 94 110 134 129 151 153 130 118 117 118 125 137 156 174 178 179 169 159 152 149 150 151 156 154 136
141 139 136 132 129 131 128 113 112 110 113 117 123 103 100 118 115 130 97 112 136 149 141 126 121 133 151 156 154 147 153 163 172 178 163 153 152 161 174 175 182 197 192
144 141 143 141 139 143 142 137 129 120 118 124 131 128 124 112 95 113 125 136 144 147 138 142 139 139 148 148 151 149 146 141 137 148 153 161 161 177 210 237 233 224 184
154 149 154 158 154 157 165 153 157 153 147 128 127 129 135 139 138 140 139 151 143 128 136 145 138 138 143 152 160 155 155 163 170 183 202 215 210 206 230 219 196 157 165
132 132 142 154 158 155 149 145 151 160 168 166 160 162 160 159 158 149 138 129 112 119 124 132 148 151 163 180 193 199 182 174 179 179 159 146 174 219 224 205 180 191 183
138 143 159 156 150 154 152 156 150 158 167 173 176 174 166 170 171 170 162 151 139 120 118 116 195 202 205 202 207 209 206 201 203 199 197 216 210 211 226 222 190 178 196
165 183 179 182 179 171 178 188 191 199 193 193 188 176 175 172 171 174 175 177 173 164 160 241 255 213 203 191 197 207 210 208 209 204 196 204 221 220 255 211 206 214 204
244 224 213 215 219 218 227 237 240 241 242 234 222 218 213 218 209 183 180 188 199 228 259 263 230 224 220 215 213 213 203 198 195 204 206 246 211 214 209 212 206 196 186
238 231 224 232 241 252 256 257 256 246 243 245 242 237 236 232 221 221 217 217 225 233 255 257 225 231 232 230 233 237 235 236 241 231 232 230 223 233 227 220 219 214 216
221 225 222 229 267 251 237 241 244 241 246 251 249 237 234 234 230 222 216 228 232 233 220 205 212 219 237 234 230 239 242 240 241 235 230 233 244 235 235 237 235 232 228
232 236 238 252 279 264 231 235 237 244 244 241 246 238 238 234 236 233 226 225 226 230 233 231 231 230 225 227 231 237 240 239 236 222 223 232 239 234 235 234 235 226 215
227 232 240 245 255 259 257 239 234 243 239 240 237 236 236 236 233 232 228 230 231 232 235 238 243 246 245 243 245 242 241 237 230 234 246 242 237 234 236 235 236 237 247
Height
804 810 814 817 820 823 826 828 830 832 834 836 838 839 841 843 844 845 846 847 849 849 849 849 850 849 849 849 848 848 848 847 846 846 846 845 846 847 849 849 850 850 850
799 804 808 813 816 819 822 825 827 829 831 832 834 836 837 839 842 843 843 844 845 845 846 847 847 847 846 846 845 846 846 846 845 844 844 844 845 845 848 848 848 848 848
795 800 804 808 812 815 818 821 824 826 828 830 830 831 833 836 838 839 841 842 842 842 843 843 843 843 843 843 843 843 843 843 843 843 842 841 842 842 844 846 846 846 847
791 795 798 803 807 810 813 816 819 821 824 826 827 829 829 831 833 835 837 838 838 839 839 839 839 839 839 839 840 839 839 840 840 840 839 838 838 838 840 841 842 842 844
789 792 794 799 802 805 808 811 814 816 819 821 823 824 825 826 827 830 831 832 833 833 834 835 835 835 835 835 836 835 835 836 836 836 835 835 834 834 835 835 837 839 840
789 789 791 795 799 801 802 805 808 810 812 815 818 820 821 821 822 823 825 827 828 829 829 829 830 831 831 831 831 831 832 832 832 831 831 831 829 829 830 831 833 837 840
788 789 788 796 796 797 798 800 802 804 807 809 811 815 816 817 818 818 819 821 821 823 823 823 824 825 825 826 826 826 827 827 827 827 826 826 826 827 827 827 827 828 828
786 786 789 793 794 794 795 795 796 798 800 802 804 806 809 812 812 813 814 815 816 817 819 819 819 820 821 822 822 823 823 823 823 823 823 823 823 824 825 825 825 826 826
785 782 786 788 790 793 793 793 793 792 794 797 799 800 802 805 808 810 810 810 811 812 813 814 814 815 817 818 818 818 819 820 819 819 819 820 820 821 821 821 821 822 823
785 784 786 785 785 785 788 789 792 790 789 793 795 796 798 800 801 803 806 806 807 808 810 810 810 811 812 813 814 815 815 815 816 817 817 818 819 819 818 819 818 819 820
781 780 781 783 784 785 787 790 789 787 788 790 791 794 796 798 799 801 802 803 803 805 805 806 807 807 809 810 810 811 811 813 814 816 816 818 819 819 819 818 817 818 818
780 781 782 783 785 787 786 787 785 788 787 788 795 791 795 799 799 800 801 802 802 802 803 804 804 804 805 807 808 809 809 810 812 815 816 817 818 820 821 821 819 819 818
780 781 782 784 785 786 787 787 786 787 791 791 795 792 796 799 800 799 798 799 800 802 803 802 804 804 803 804 806 807 808 811 812 814 814 818 819 820 822 822 821 821 822
781 782 783 784 786 789 790 789 790 791 793 792 793 792 797 790 796 799 797 795 799 801 802 804 806 805 805 807 809 811 812 814 816 817 818 819 820 822 825 824 825 827 827
783 784 786 786 788 790 790 792 793 794 794 794 797 799 797 797 799 797 801 798 802 803 806 807 806 806 808 810 812 813 814 815 817 818 819 819 821 823 825 826 826 826 826
786 786 788 790 790 792 793 794 795 798 798 797 798 801 801 801 800 801 801 803 802 807 808 806 808 809 811 812 813 814 815 816 819 820 822 823 824 826 827 827 827 828 829
787 789 790 791 792 795 796 796 796 799 799 800 801 800 802 805 805 806 807 805 808 808 807 809 808 811 814 816 816 817 818 819 821 824 824 825 826 826 826 828 827 827 829
790 790 792 793 794 796 799 797 799 799 801 801 802 803 802 804 807 809 810 813 810 809 808 809 811 810 813 817 819 819 819 820 823 823 825 826 826 827 827 827 827 827 829
790 791 794 796 798 799 799 800 802 803 805 805 804 805 806 807 808 808 810 813 813 812 811 812 813 813 815 816 819 820 819 819 821 823 824 825 827 827 828 830 829 828 830
792 795 796 798 797 799 799 802 802 805 806 808 808 808 806 808 808 808 809 811 813 813 815 813 816 816 816 817 819 821 821 820 821 822 823 825 826 827 828 830 829 829 830
793 795 796 799 799 799 801 803 804 805 806 808 808 808 808 807 806 807 808 809 810 811 813 814 817 817 818 817 818 820 820 821 821 822 822 825 827 827 827 828 829 829 829
793 795 796 798 799 800 801 802 804 804 807 806 805 806 806 807 808 807 806 807 808 810 812 814 816 817 818 818 819 820 819 819 820 821 823 824 825 826 826 827 829 829 829
794 794 795 797 798 798 798 800 800 800 802 804 805 804 804 806 806 806 806 807 808 808 811 812 814 815 816 818 819 820 820 820 820 821 823 824 825 825 826 827 827 828 830
793 794 795 796 796 795 796 798 798 801 802 801 801 801 802 804 804 803 804 806 807 808 809 810 812 812 814 817 818 819 820 820 820 821 822 823 824 824 824 826 827 827 828
790 791 793 793 792 791 792 794 796 799 798 798 797 799 799 801 801 800 801 803 805 806 808 809 810 811 810 814 817 818 818 820 821 821 821 822 822 822 823 824 825 826 826
786 788 789 790 790 789 789 790 791 792 793 793 792 792 793 795 795 796 799 801 802 803 806 806 806 810 812 812 813 815 816 818 818 819 820 820 820 820 821 822 822 823 823